Time,TemperatureF,DewpointF,PressureIn,WindDirection,WindDirectionDegrees,WindSpeedMPH,WindSpeedGustMPH,Humidity,HourlyPrecipIn,Conditions,Clouds,dailyrainin,SolarRadiationWatts/m^2,SoftwareType,DateUTC
2013-06-05 00:08:00,72.4,71.0,30.02,SW,234,0.0,2.0,96,0.00,,,0.00,0,weatherlink.com 1.10,2013-06-05 04:08:00,
2013-06-05 00:24:00,72.2,71.0,30.01,SSW,213,0.0,4.0,96,0.00,,,0.00,0,weatherlink.com 1.10,2013-06-05 04:24:00,
2013-06-05 00:39:00,72.1,71.0,30.01,SSW,211,0.0,3.0,96,0.00,,,0.00,0,weatherlink.com 1.10,2013-06-05 04:39:00,
2013-06-05 00:54:00,71.9,71.0,30.00,SSW,211,0.0,1.0,96,0.00,,,0.00,0,weatherlink.com 1.10,2013-06-05 04:54:00,
2013-06-05 01:09:00,71.7,71.0,30.00,SSW,211,0.0,1.0,97,0.00,,,0.00,0,weatherlink.com 1.10,2013-06-05 05:09:00,
2013-06-05 01:24:00,71.5,70.0,30.00,SSW,211,0.0,0.0,96,0.00,,,0.00,0,weatherlink.com 1.10,2013-06-05 05:24:00,
2013-06-05 01:39:00,71.3,70.0,29.99,SSW,211,0.0,1.0,97,0.00,,,0.00,0,weatherlink.com 1.10,2013-06-05 05:39:00,
2013-06-05 01:54:00,71.3,70.0,29.98,SSW,200,3.0,4.0,97,0.00,,,0.00,0,weatherlink.com 1.10,2013-06-05 05:54:00,
2013-06-05 02:10:00,71.3,70.0,29.98,SSW,202,2.0,5.0,97,0.00,,,0.00,0,weatherlink.com 1.10,2013-06-05 06:10:00,
2013-06-05 02:24:00,71.2,70.0,29.97,SSE,156,0.0,3.0,97,0.00,,,0.00,0,weatherlink.com 1.10,2013-06-05 06:24:00,
2013-06-05 02:39:00,71.1,70.0,29.96,SSE,163,1.0,3.0,97,0.00,,,0.00,0,weatherlink.com 1.10,2013-06-05 06:39:00,
2013-06-05 02:54:00,71.0,70.0,29.96,SW,214,0.0,3.0,97,0.00,,,0.00,0,weatherlink.com 1.10,2013-06-05 06:54:00,
2013-06-05 03:09:00,71.0,70.0,29.95,SSW,209,0.0,1.0,97,0.00,,,0.00,0,weatherlink.com 1.10,2013-06-05 07:09:00,
2013-06-05 03:24:00,70.9,70.0,29.95,SSW,209,0.0,1.0,97,0.00,,,0.00,0,weatherlink.com 1.10,2013-06-05 07:24:00,
2013-06-05 03:40:00,70.8,70.0,29.94,SSW,209,0.0,1.0,97,0.00,,,0.00,0,weatherlink.com 1.10,2013-06-05 07:40:00,
2013-06-05 03:55:00,70.7,70.0,29.94,South,186,0.0,2.0,97,0.00,,,0.00,0,weatherlink.com 1.10,2013-06-05 07:55:00,
2013-06-05 04:10:00,70.7,70.0,29.94,South,190,1.0,3.0,97,0.00,,,0.00,0,weatherlink.com 1.10,2013-06-05 08:10:00,
2013-06-05 04:25:00,70.7,70.0,29.95,South,177,1.0,3.0,97,0.00,,,0.00,0,weatherlink.com 1.10,2013-06-05 08:25:00,
2013-06-05 04:40:00,70.8,70.0,29.96,SSE,155,2.0,2.0,97,0.00,,,0.00,0,weatherlink.com 1.10,2013-06-05 08:40:00,
2013-06-05 04:55:00,70.9,70.0,29.96,SSE,162,0.0,3.0,97,0.00,,,0.00,0,weatherlink.com 1.10,2013-06-05 08:55:00,
2013-06-05 05:10:00,70.9,70.0,29.97,SSE,162,0.0,0.0,97,0.00,,,0.00,0,weatherlink.com 1.10,2013-06-05 09:10:00,
2013-06-05 05:25:00,70.9,70.0,29.97,SSE,162,0.0,0.0,97,0.00,,,0.00,0,weatherlink.com 1.10,2013-06-05 09:25:00,
2013-06-05 05:40:00,71.0,70.0,29.98,SSE,159,0.0,1.0,97,0.00,,,0.00,0,weatherlink.com 1.10,2013-06-05 09:40:00,
2013-06-05 05:55:00,71.1,70.0,29.98,SSE,151,0.0,1.0,97,0.00,,,0.00,0,weatherlink.com 1.10,2013-06-05 09:55:00,
2013-06-05 06:10:00,71.2,70.0,29.98,SSE,151,0.0,1.0,97,0.00,,,0.00,0,weatherlink.com 1.10,2013-06-05 10:10:00,
2013-06-05 06:25:00,71.2,70.0,29.98,SSE,151,0.0,0.0,97,0.00,,,0.00,0,weatherlink.com 1.10,2013-06-05 10:25:00,
2013-06-05 06:40:00,71.2,70.0,29.98,SSE,151,1.0,1.0,97,0.00,,,0.00,0,weatherlink.com 1.10,2013-06-05 10:40:00,
2013-06-05 06:55:00,71.2,70.0,29.99,ESE,117,0.0,2.0,97,0.00,,,0.00,14,weatherlink.com 1.10,2013-06-05 10:55:00,
2013-06-05 07:10:00,71.3,71.0,29.99,ESE,113,0.0,2.0,98,0.00,,,0.00,28,weatherlink.com 1.10,2013-06-05 11:10:00,
2013-06-05 07:25:00,71.5,71.0,29.99,East,91,1.0,5.0,97,0.00,,,0.00,30,weatherlink.com 1.10,2013-06-05 11:25:00,
2013-06-05 07:40:00,71.6,71.0,29.99,East,91,0.0,1.0,97,0.00,,,0.00,37,weatherlink.com 1.10,2013-06-05 11:40:00,
2013-06-05 07:55:00,71.9,71.0,29.99,East,91,0.0,0.0,98,0.00,,,0.00,58,weatherlink.com 1.10,2013-06-05 11:55:00,
2013-06-05 08:11:00,72.3,72.0,29.99,East,91,0.0,2.0,98,0.00,,,0.00,70,weatherlink.com 1.10,2013-06-05 12:11:00,
2013-06-05 08:26:00,72.6,72.0,30.00,East,91,0.0,1.0,98,0.00,,,0.00,79,weatherlink.com 1.10,2013-06-05 12:26:00,
2013-06-05 08:41:00,72.9,72.0,30.01,NNE,16,3.0,5.0,97,0.00,,,0.00,74,weatherlink.com 1.10,2013-06-05 12:41:00,
2013-06-05 08:56:00,73.1,72.0,30.00,NE,48,1.0,5.0,97,0.00,,,0.00,127,weatherlink.com 1.10,2013-06-05 12:56:00,
2013-06-05 09:26:00,74.5,73.0,30.00,ENE,70,2.0,3.0,95,0.00,,,0.00,253,weatherlink.com 1.10,2013-06-05 13:26:00,
2013-06-05 09:56:00,76.2,74.0,30.00,NNE,15,2.0,5.0,91,0.00,,,0.00,283,weatherlink.com 1.10,2013-06-05 13:56:00,
2013-06-05 10:11:00,76.9,74.0,30.00,NNE,21,1.0,3.0,90,0.00,,,0.00,304,weatherlink.com 1.10,2013-06-05 14:11:00,
2013-06-05 10:27:00,77.7,74.0,30.00,NE,50,0.0,3.0,88,0.00,,,0.00,313,weatherlink.com 1.10,2013-06-05 14:27:00,
2013-06-05 10:42:00,78.6,74.0,30.01,ENE,59,1.0,4.0,85,0.00,,,0.00,462,weatherlink.com 1.10,2013-06-05 14:42:00,
2013-06-05 10:57:00,79.4,74.0,30.01,NE,56,2.0,3.0,84,0.00,,,0.00,320,weatherlink.com 1.10,2013-06-05 14:57:00,
2013-06-05 11:12:00,79.4,74.0,30.01,ENE,74,0.0,3.0,83,0.00,,,0.00,220,weatherlink.com 1.10,2013-06-05 15:12:00,
2013-06-05 11:27:00,79.7,75.0,30.01,ENE,77,0.0,2.0,84,0.00,,,0.00,283,weatherlink.com 1.10,2013-06-05 15:27:00,
2013-06-05 11:42:00,80.6,75.0,30.00,South,175,0.0,3.0,84,0.00,,,0.00,700,weatherlink.com 1.10,2013-06-05 15:42:00,
2013-06-05 11:57:00,81.6,75.0,30.00,SSE,153,2.0,4.0,80,0.00,,,0.00,308,weatherlink.com 1.10,2013-06-05 15:57:00,
2013-06-05 12:12:00,82.0,75.0,30.00,ESE,109,2.0,3.0,80,0.00,,,0.00,244,weatherlink.com 1.10,2013-06-05 16:12:00,
2013-06-05 12:27:00,81.7,75.0,29.99,SSE,161,2.0,5.0,80,0.00,,,0.00,309,weatherlink.com 1.10,2013-06-05 16:27:00,
2013-06-05 12:42:00,80.1,73.0,29.99,SSE,164,4.0,7.0,78,0.00,,,0.00,360,weatherlink.com 1.10,2013-06-05 16:42:00,
2013-06-05 12:57:00,77.8,73.0,29.99,ESE,122,0.0,4.0,86,0.01,,,0.01,288,weatherlink.com 1.10,2013-06-05 16:57:00,
2013-06-05 13:12:00,77.0,73.0,29.98,SE,140,0.0,2.0,86,0.01,,,0.01,276,weatherlink.com 1.10,2013-06-05 17:12:00,
2013-06-05 13:27:00,77.5,73.0,29.98,WSW,247,1.0,5.0,87,0.01,,,0.01,380,weatherlink.com 1.10,2013-06-05 17:27:00,
2013-06-05 13:44:00,78.6,72.0,29.96,WSW,244,0.0,3.0,80,0.01,,,0.01,508,weatherlink.com 1.10,2013-06-05 17:44:00,
2013-06-05 13:58:00,80.1,73.0,29.96,SW,215,0.0,4.0,79,0.00,,,0.01,594,weatherlink.com 1.10,2013-06-05 17:58:00,
2013-06-05 14:12:00,81.4,72.0,29.96,NE,49,2.0,3.0,74,0.00,,,0.01,515,weatherlink.com 1.10,2013-06-05 18:12:00,
2013-06-05 14:27:00,81.8,73.0,29.96,East,93,0.0,3.0,74,0.00,,,0.01,221,weatherlink.com 1.10,2013-06-05 18:27:00,
2013-06-05 14:44:00,79.9,73.0,29.96,ESE,113,2.0,5.0,80,0.00,,,0.01,95,weatherlink.com 1.10,2013-06-05 18:44:00,
2013-06-05 14:58:00,75.9,72.0,29.97,SSW,200,1.0,7.0,86,0.14,,,0.15,72,weatherlink.com 1.10,2013-06-05 18:58:00,
2013-06-05 15:14:00,73.2,71.0,29.96,ENE,71,2.0,3.0,93,0.34,,,0.35,116,weatherlink.com 1.10,2013-06-05 19:14:00,
2013-06-05 15:28:00,72.8,71.0,29.97,East,80,3.0,3.0,94,0.37,,,0.38,33,weatherlink.com 1.10,2013-06-05 19:28:00,
2013-06-05 15:44:00,72.6,71.0,29.97,East,93,1.0,5.0,95,0.46,,,0.47,63,weatherlink.com 1.10,2013-06-05 19:44:00,
2013-06-05 15:58:00,72.3,71.0,29.97,NNW,338,3.0,6.0,95,0.33,,,0.50,98,weatherlink.com 1.10,2013-06-05 19:58:00,
2013-06-05 16:14:00,72.2,71.0,29.96,NE,46,0.0,6.0,96,0.18,,,0.53,86,weatherlink.com 1.10,2013-06-05 20:14:00,
2013-06-05 16:28:00,72.0,71.0,29.96,ESE,108,4.0,8.0,96,0.14,,,0.55,86,weatherlink.com 1.10,2013-06-05 20:28:00,
2013-06-05 16:44:00,72.0,71.0,29.96,ESE,123,0.0,4.0,96,0.08,,,0.55,107,weatherlink.com 1.10,2013-06-05 20:44:00,
2013-06-05 16:58:00,71.9,71.0,29.96,East,88,3.0,4.0,96,0.05,,,0.55,132,weatherlink.com 1.10,2013-06-05 20:58:00,
2013-06-05 17:14:00,71.9,71.0,29.95,SW,218,1.0,3.0,96,0.02,,,0.55,141,weatherlink.com 1.10,2013-06-05 21:14:00,
2013-06-05 17:28:00,72.2,71.0,29.95,NE,56,3.0,4.0,97,0.00,,,0.55,149,weatherlink.com 1.10,2013-06-05 21:28:00,
2013-06-05 17:44:00,72.6,72.0,29.95,East,90,2.0,5.0,97,0.00,,,0.55,134,weatherlink.com 1.10,2013-06-05 21:44:00,
2013-06-05 17:59:00,72.6,71.0,29.94,East,82,2.0,7.0,96,0.00,,,0.55,86,weatherlink.com 1.10,2013-06-05 21:59:00,
2013-06-05 18:14:00,73.0,72.0,29.94,East,86,1.0,1.0,97,0.00,,,0.55,116,weatherlink.com 1.10,2013-06-05 22:14:00,
2013-06-05 18:28:00,73.0,72.0,29.94,SE,142,0.0,3.0,96,0.00,,,0.55,105,weatherlink.com 1.10,2013-06-05 22:28:00,
2013-06-05 18:44:00,72.8,71.0,29.94,SSE,148,1.0,4.0,95,0.00,,,0.55,51,weatherlink.com 1.10,2013-06-05 22:44:00,
2013-06-05 18:59:00,72.7,71.0,29.93,ESE,111,1.0,2.0,95,0.00,,,0.55,42,weatherlink.com 1.10,2013-06-05 22:59:00,
2013-06-05 19:14:00,72.7,71.0,29.93,ESE,109,0.0,3.0,95,0.00,,,0.55,33,weatherlink.com 1.10,2013-06-05 23:14:00,
2013-06-05 19:29:00,72.8,72.0,29.94,East,98,0.0,1.0,96,0.01,,,0.56,42,weatherlink.com 1.10,2013-06-05 23:29:00,
2013-06-05 19:44:00,72.8,72.0,29.94,East,90,0.0,3.0,96,0.01,,,0.56,33,weatherlink.com 1.10,2013-06-05 23:44:00,
2013-06-05 19:59:00,72.7,72.0,29.94,East,83,0.0,1.0,96,0.01,,,0.56,21,weatherlink.com 1.10,2013-06-05 23:59:00,
2013-06-05 20:14:00,72.7,72.0,29.94,ENE,76,0.0,2.0,96,0.01,,,0.56,5,weatherlink.com 1.10,2013-06-06 00:14:00,
2013-06-05 20:29:00,72.6,71.0,29.93,ENE,76,0.0,1.0,96,0.00,,,0.56,0,weatherlink.com 1.10,2013-06-06 00:29:00,
2013-06-05 20:44:00,72.4,72.0,29.93,East,82,0.0,2.0,97,0.00,,,0.56,0,weatherlink.com 1.10,2013-06-06 00:44:00,
2013-06-05 20:59:00,72.3,71.0,29.93,East,82,0.0,2.0,97,0.00,,,0.56,0,weatherlink.com 1.10,2013-06-06 00:59:00,
2013-06-05 21:14:00,72.2,71.0,29.93,East,82,0.0,1.0,97,0.00,,,0.56,0,weatherlink.com 1.10,2013-06-06 01:14:00,
2013-06-05 21:29:00,72.2,71.0,29.93,East,82,0.0,1.0,97,0.00,,,0.56,0,weatherlink.com 1.10,2013-06-06 01:29:00,
2013-06-05 21:44:00,72.1,71.0,29.93,East,82,0.0,1.0,97,0.00,,,0.56,0,weatherlink.com 1.10,2013-06-06 01:44:00,
2013-06-05 21:59:00,72.1,71.0,29.93,East,82,0.0,1.0,97,0.00,,,0.56,0,weatherlink.com 1.10,2013-06-06 01:59:00,
2013-06-05 22:15:00,72.0,71.0,29.93,East,82,0.0,1.0,97,0.00,,,0.56,0,weatherlink.com 1.10,2013-06-06 02:15:00,
2013-06-05 22:29:00,71.9,71.0,29.93,East,82,0.0,1.0,97,0.00,,,0.56,0,weatherlink.com 1.10,2013-06-06 02:29:00,
2013-06-05 22:45:00,71.9,71.0,29.92,East,81,1.0,1.0,97,0.00,,,0.56,0,weatherlink.com 1.10,2013-06-06 02:45:00,
2013-06-05 23:00:00,71.8,71.0,29.92,East,82,0.0,2.0,97,0.00,,,0.56,0,weatherlink.com 1.10,2013-06-06 03:00:00,
2013-06-05 23:15:00,71.7,71.0,29.92,East,83,0.0,2.0,97,0.00,,,0.56,0,weatherlink.com 1.10,2013-06-06 03:15:00,
2013-06-05 23:30:00,71.7,71.0,29.93,East,84,0.0,2.0,98,0.00,,,0.56,0,weatherlink.com 1.10,2013-06-06 03:30:00,
2013-06-05 23:45:00,71.7,71.0,29.93,East,84,0.0,1.0,98,0.00,,,0.56,0,weatherlink.com 1.10,2013-06-06 03:45:00,